Location: Bourg-d�Oueil
(42.8588°N, 0.4991°E)
Time: 20:03:04
(UTC+00:00)

KORONAS-FOTON - Pass Details

Date: 16 June 2021
Orbit: 506 x 530 km, 82.4° (Epoch: 02 August)

Event Time Altitude Azimuth Distance (km) Brightness Sun altitude
Exits shadow 21:36:09 16° 202° (SSW) 1,402 5.7 -16.1°
Maximum altitude 21:39:04 59° 280° (W) 595 4.2 -16.4°
Drops below altitude 10° 21:42:50 10° 1° (N) 1,736 7.3 -16.7°
Sets 21:45:00 0° 5° (N) 2,624 8.3 -16.9°
